Regional Weather Roundup
Issued by NWS

Home | Current Version | Previous Version | Graphics & Text | Print | Product List | Glossary On
Versions: 1 2 3 4 5 6 7 8 9 10 11 12 13 14 15 16 17 18 19 20 21 22 23 24 25 26 27 28 29 30 31 32 33 34 35 36 37 38 39 40 41 42 43 44 45 46 47 48 49 50
000
ASUS43 KIND 230100
RWRIN

WEATHER ROUNDUP FOR INDIANA
NATIONAL WEATHER SERVICE INDIANAPOLIS IN
900 PM EDT SAT JUL 22 2017

NOTE: "FAIR" INDICATES FEW OR NO CLOUDS BELOW 12,000 FEET WITH NO
SIGNIFICANT WEATHER AND/OR OBSTRUCTIONS TO VISIBILITY.

* - STATION DOES NOT REPORT WEATHER SUCH AS PRECIPITATION OR FOG.

+ - STATION NOT QUALITY CONTROLLED BY THE NATIONAL WEATHER SERVICE.
    USE DATA WITH CAUTION...ESPECIALLY DEWPOINT AND RELATIVE
    HUMIDITY OBSERVATIONS.

INZ001>003-010>013-019-020-230200-
NORTHWEST INDIANA

CITY           SKY/WX    TMP DP  RH WIND       PRES   REMARKS
GARY /AIRPORT/ PTCLDY    79  68  69 NE8       29.81
MICHIGAN CITY+ PTCLDY    73  68  83 CALM      29.82S
MONTICELLO +   CLOUDY    79  74  84 CALM      29.80S
RENSSELAER +   CLOUDY    79  73  83 CALM      29.81S

$$

LMZ046-743>745-230200-
SOUTHERN LAKE MICHIGAN

STATION/POSITION TIME  TEMP    WIND        PRES    WAVE
                       AIR SEA DIR/SP/G            HT
                 (UTC) (F)     (DEG/KT/KT) (MB)    (FT)
BURNS HARBOR     0040   77      80/  7/  9 1009.8S
MICHIGAN CITY    0030   76      30/  7/  7   N/A
5NW MICH CITY    0050   76 76   50/  6/  8   N/A     0

$$

INZ004-005-014>016-021>024-230200-
NORTH CENTRAL INDIANA

CITY           SKY/WX    TMP DP  RH WIND       PRES   REMARKS
GOSHEN         PTCLDY    77  68  73 NW6       29.82R
SOUTH BEND     CLEAR     76  69  79 NW5       29.82S

$$

INZ006>009-017-018-025>027-230200-
NORTHEAST INDIANA

CITY           SKY/WX    TMP DP  RH WIND       PRES   REMARKS
FORT WAYNE     PTCLDY    79  70  74 NW5       29.82R
KENDALLVILLE + MOCLDY    75  69  80 NW6       29.83R

$$

INZ028-029-035-036-043>045-051>053-230200-
WEST CENTRAL INDIANA

CITY           SKY/WX    TMP DP  RH WIND       PRES   REMARKS
LAFAYETTE      PTCLDY    79  76  90 CALM      29.80S
TERRE HAUTE    MOCLDY    85  76  74 S3        29.80S THUNDER

$$

INZ030>032-037>040-046>048-054>057-064-065-230200-
CENTRAL INDIANA

CITY           SKY/WX    TMP DP  RH WIND       PRES   REMARKS
COLUMBUS       MOCLDY    82  72  69 CALM      29.82R
INDIANAPOLIS   CLOUDY    83  73  72 N5        29.82R
-EAGLE CREEK   CLOUDY    83  73  72 N5        29.82R
KOKOMO +       CLOUDY    80  73  79 W3        29.83S
MT COMFORT *+  CLOUDY    81  73  78 W3        29.84R
SHELBYVILLE    PTCLDY    80  74  81 CALM      29.82S

$$

INZ033-034-041-042-049-050-058-059-230200-
EAST CENTRAL INDIANA

CITY           SKY/WX    TMP DP  RH WIND       PRES   REMARKS
MUNCIE         MOCLDY    79  72  79 CALM      29.83R
RICHMOND +     CLOUDY    79  70  73 CALM      29.85S

$$

INZ060-061-067>069-081>083-085>088-230200-
SOUTHWEST INDIANA

CITY           SKY/WX    TMP DP  RH WIND       PRES   REMARKS
EVANSVILLE     CLEAR     91  72  53 SW14      29.82R HX  98
HUNTINGBURG *+ CLEAR     88  73  61 SW7       29.83R HX  95

$$

INZ062-063-066-070>080-084-089>092-230200-
SOUTH CENTRAL AND SOUTHEAST INDIANA

CITY           SKY/WX    TMP DP  RH WIND       PRES   REMARKS
BLOOMINGTON    CLOUDY    83  75  77 NW5       29.82R THUNDER
MADISON *+     MOCLDY    81  73  78 CALM      29.86R
SEYMOUR +      CLOUDY    86  77  74 NE7       29.81R HX  97

$$





USA.gov is the U.S. government's official web portal to all federal, state and local government web resources and services.